Time,TemperatureF,DewpointF,PressureIn,WindDirection,WindDirectionDegrees,WindSpeedMPH,WindSpeedGustMPH,Humidity,HourlyPrecipIn,Conditions,Clouds,dailyrainin,SolarRadiationWatts/m^2,SoftwareType,DateUTC
2013-04-26 00:05:00,40.7,30.0,30.35,South,190,0.0,-999.0,67,-99.99,,,0.00,0,weatherlink.com 1.10,2013-04-26 04:05:00,
2013-04-26 00:20:00,39.8,30.0,30.35,South,190,0.0,-999.0,67,-99.99,,,0.00,0,weatherlink.com 1.10,2013-04-26 04:20:00,
2013-04-26 00:35:00,39.4,29.0,30.35,South,190,0.0,-999.0,67,-99.99,,,0.00,0,weatherlink.com 1.10,2013-04-26 04:35:00,
2013-04-26 00:50:00,39.1,32.0,30.35,South,190,0.0,-999.0,75,-99.99,,,0.00,0,weatherlink.com 1.10,2013-04-26 04:50:00,
2013-04-26 01:05:00,38.8,32.0,30.36,South,190,0.0,-999.0,75,-99.99,,,0.00,0,weatherlink.com 1.10,2013-04-26 05:05:00,
2013-04-26 01:20:00,38.4,30.0,30.36,South,190,0.0,-999.0,73,-99.99,,,0.00,0,weatherlink.com 1.10,2013-04-26 05:20:00,
2013-04-26 01:35:00,38.2,31.0,30.36,South,190,0.0,-999.0,74,-99.99,,,0.00,0,weatherlink.com 1.10,2013-04-26 05:35:00,
2013-04-26 01:50:00,37.5,31.0,30.37,South,190,0.0,-999.0,76,-99.99,,,0.00,0,weatherlink.com 1.10,2013-04-26 05:50:00,
2013-04-26 02:05:00,37.6,31.0,30.37,South,190,0.0,-999.0,77,-99.99,,,0.00,0,weatherlink.com 1.10,2013-04-26 06:05:00,
2013-04-26 02:20:00,37.6,31.0,30.36,South,190,0.0,-999.0,77,-99.99,,,0.00,0,weatherlink.com 1.10,2013-04-26 06:20:00,
2013-04-26 02:35:00,37.4,31.0,30.36,South,190,0.0,-999.0,77,-99.99,,,0.00,0,weatherlink.com 1.10,2013-04-26 06:35:00,
2013-04-26 02:50:00,36.2,30.0,30.36,South,190,0.0,-999.0,79,-99.99,,,0.00,0,weatherlink.com 1.10,2013-04-26 06:50:00,
2013-04-26 03:05:00,35.2,31.0,30.37,South,190,0.0,-999.0,83,-99.99,,,0.00,0,weatherlink.com 1.10,2013-04-26 07:05:00,
2013-04-26 03:20:00,34.6,31.0,30.36,South,190,0.0,-999.0,86,-99.99,,,0.00,0,weatherlink.com 1.10,2013-04-26 07:20:00,
2013-04-26 03:35:00,34.4,30.0,30.36,South,190,0.0,-999.0,84,-99.99,,,0.00,0,weatherlink.com 1.10,2013-04-26 07:35:00,
2013-04-26 03:50:00,35.0,31.0,30.36,South,190,0.0,-999.0,85,-99.99,,,0.00,0,weatherlink.com 1.10,2013-04-26 07:50:00,
2013-04-26 04:05:00,35.7,32.0,30.36,South,190,0.0,-999.0,85,-99.99,,,0.00,0,weatherlink.com 1.10,2013-04-26 08:05:00,
2013-04-26 04:20:00,35.8,31.0,30.37,South,174,0.0,-999.0,83,-99.99,,,0.00,0,weatherlink.com 1.10,2013-04-26 08:20:00,
2013-04-26 04:35:00,35.3,31.0,30.37,South,174,0.0,-999.0,84,-99.99,,,0.00,0,weatherlink.com 1.10,2013-04-26 08:35:00,
2013-04-26 04:50:00,35.1,31.0,30.37,South,174,0.0,-999.0,85,-99.99,,,0.00,0,weatherlink.com 1.10,2013-04-26 08:50:00,
2013-04-26 05:05:00,34.8,31.0,30.38,South,174,0.0,-999.0,85,-99.99,,,0.00,0,weatherlink.com 1.10,2013-04-26 09:05:00,
2013-04-26 05:20:00,33.8,30.0,30.38,South,174,0.0,-999.0,87,-99.99,,,0.00,0,weatherlink.com 1.10,2013-04-26 09:20:00,
2013-04-26 05:35:00,34.1,31.0,30.38,South,174,0.0,-999.0,89,-99.99,,,0.00,0,weatherlink.com 1.10,2013-04-26 09:35:00,
2013-04-26 05:50:00,34.7,32.0,30.39,South,174,0.0,-999.0,88,-99.99,,,0.00,0,weatherlink.com 1.10,2013-04-26 09:50:00,
2013-04-26 06:05:00,34.8,31.0,30.39,South,174,0.0,-999.0,87,-99.99,,,0.00,0,weatherlink.com 1.10,2013-04-26 10:05:00,
2013-04-26 06:20:00,34.3,31.0,30.39,South,174,0.0,-999.0,87,-99.99,,,0.00,0,weatherlink.com 1.10,2013-04-26 10:20:00,
2013-04-26 06:35:00,33.8,31.0,30.39,South,174,0.0,-999.0,88,-99.99,,,0.00,0,weatherlink.com 1.10,2013-04-26 10:35:00,
2013-04-26 06:50:00,34.0,31.0,30.40,South,174,0.0,-999.0,88,-99.99,,,0.00,0,weatherlink.com 1.10,2013-04-26 10:50:00,
2013-04-26 07:05:00,35.5,32.0,30.40,SE,141,2.0,-999.0,86,-99.99,,,0.00,16,weatherlink.com 1.10,2013-04-26 11:05:00,
2013-04-26 07:20:00,35.6,32.0,30.40,SE,140,1.0,-999.0,85,-99.99,,,0.00,26,weatherlink.com 1.10,2013-04-26 11:20:00,
2013-04-26 07:35:00,35.9,32.0,30.40,SE,138,3.0,-999.0,84,-99.99,,,0.00,44,weatherlink.com 1.10,2013-04-26 11:35:00,
2013-04-26 07:50:00,36.6,32.0,30.41,SSE,154,3.0,-999.0,84,-99.99,,,0.00,97,weatherlink.com 1.10,2013-04-26 11:50:00,
2013-04-26 08:05:00,38.2,33.0,30.41,South,176,4.0,-999.0,82,-99.99,,,0.00,142,weatherlink.com 1.10,2013-04-26 12:05:00,
2013-04-26 08:20:00,39.8,34.0,30.41,South,172,4.0,-999.0,79,-99.99,,,0.00,193,weatherlink.com 1.10,2013-04-26 12:20:00,
2013-04-26 08:35:00,41.3,34.0,30.42,SSE,161,6.0,-999.0,76,-99.99,,,0.00,257,weatherlink.com 1.10,2013-04-26 12:35:00,
2013-04-26 08:50:00,42.7,35.0,30.43,SSE,164,4.0,-999.0,74,-99.99,,,0.00,253,weatherlink.com 1.10,2013-04-26 12:50:00,
2013-04-26 09:05:00,44.3,37.0,30.41,SE,141,8.0,-999.0,74,-99.99,,,0.00,330,weatherlink.com 1.10,2013-04-26 13:05:00,
2013-04-26 09:20:00,45.6,37.0,30.41,South,169,9.0,-999.0,71,-99.99,,,0.00,369,weatherlink.com 1.10,2013-04-26 13:20:00,
2013-04-26 09:35:00,46.7,36.0,30.41,SSE,166,10.0,-999.0,67,-99.99,,,0.00,429,weatherlink.com 1.10,2013-04-26 13:35:00,
2013-04-26 09:50:00,47.7,37.0,30.41,South,177,11.0,-999.0,67,-99.99,,,0.00,455,weatherlink.com 1.10,2013-04-26 13:50:00,
2013-04-26 10:05:00,48.3,37.0,30.41,SSE,167,8.0,-999.0,65,-99.99,,,0.00,410,weatherlink.com 1.10,2013-04-26 14:05:00,
2013-04-26 10:20:00,48.8,36.0,30.41,SSE,168,6.0,-999.0,62,-99.99,,,0.00,466,weatherlink.com 1.10,2013-04-26 14:20:00,
2013-04-26 10:35:00,49.8,36.0,30.41,South,174,12.0,-999.0,60,-99.99,,,0.00,603,weatherlink.com 1.10,2013-04-26 14:35:00,
2013-04-26 10:50:00,50.5,39.0,30.41,SSE,163,12.0,-999.0,65,-99.99,,,0.00,603,weatherlink.com 1.10,2013-04-26 14:50:00,
2013-04-26 11:05:00,51.1,37.0,30.42,South,172,11.0,-999.0,60,-99.99,,,0.00,722,weatherlink.com 1.10,2013-04-26 15:05:00,
2013-04-26 11:20:00,52.2,38.0,30.42,South,176,10.0,-999.0,60,-99.99,,,0.00,652,weatherlink.com 1.10,2013-04-26 15:20:00,
2013-04-26 11:35:00,52.6,39.0,30.42,SSE,147,8.0,-999.0,61,-99.99,,,0.00,671,weatherlink.com 1.10,2013-04-26 15:35:00,
2013-04-26 11:50:00,52.8,38.0,30.42,South,173,9.0,-999.0,57,-99.99,,,0.00,679,weatherlink.com 1.10,2013-04-26 15:50:00,
2013-04-26 12:05:00,53.3,38.0,30.42,SSW,195,9.0,-999.0,57,-99.99,,,0.00,664,weatherlink.com 1.10,2013-04-26 16:05:00,
2013-04-26 12:20:00,54.3,38.0,30.42,SE,142,10.0,-999.0,54,-99.99,,,0.00,707,weatherlink.com 1.10,2013-04-26 16:20:00,
2013-04-26 12:35:00,55.1,40.0,30.42,SE,141,9.0,-999.0,57,-99.99,,,0.00,786,weatherlink.com 1.10,2013-04-26 16:35:00,
2013-04-26 12:50:00,55.4,39.0,30.42,SSW,199,11.0,-999.0,54,-99.99,,,0.00,842,weatherlink.com 1.10,2013-04-26 16:50:00,
2013-04-26 13:05:00,55.5,39.0,30.42,South,189,11.0,-999.0,54,-99.99,,,0.00,867,weatherlink.com 1.10,2013-04-26 17:05:00,
2013-04-26 13:20:00,56.0,40.0,30.41,SSE,160,11.0,-999.0,55,-99.99,,,0.00,749,weatherlink.com 1.10,2013-04-26 17:20:00,
2013-04-26 13:35:00,56.4,42.0,30.40,SSW,202,8.0,-999.0,58,-99.99,,,0.00,687,weatherlink.com 1.10,2013-04-26 17:35:00,
2013-04-26 13:50:00,56.3,40.0,30.40,South,177,11.0,-999.0,55,-99.99,,,0.00,761,weatherlink.com 1.10,2013-04-26 17:50:00,
2013-04-26 14:05:00,57.1,38.0,30.39,South,177,11.0,-999.0,50,-99.99,,,0.00,780,weatherlink.com 1.10,2013-04-26 18:05:00,
2013-04-26 14:20:00,57.6,40.0,30.39,South,176,10.0,-999.0,52,-99.99,,,0.00,882,weatherlink.com 1.10,2013-04-26 18:20:00,
2013-04-26 14:35:00,58.0,39.0,30.38,South,188,6.0,-999.0,49,-99.99,,,0.00,900,weatherlink.com 1.10,2013-04-26 18:35:00,
2013-04-26 14:50:00,58.1,39.0,30.37,South,188,10.0,-999.0,49,-99.99,,,0.00,874,weatherlink.com 1.10,2013-04-26 18:50:00,
2013-04-26 15:05:00,58.5,39.0,30.37,South,184,13.0,-999.0,48,-99.99,,,0.00,877,weatherlink.com 1.10,2013-04-26 19:05:00,
2013-04-26 15:20:00,59.4,41.0,30.36,South,179,11.0,-999.0,50,-99.99,,,0.00,853,weatherlink.com 1.10,2013-04-26 19:20:00,
2013-04-26 15:35:00,59.8,43.0,30.36,South,170,12.0,-999.0,55,-99.99,,,0.00,853,weatherlink.com 1.10,2013-04-26 19:35:00,
2013-04-26 15:50:00,60.0,42.0,30.35,SSE,160,11.0,-999.0,52,-99.99,,,0.00,807,weatherlink.com 1.10,2013-04-26 19:50:00,
2013-04-26 16:05:00,59.9,42.0,30.34,SSE,164,13.0,-999.0,52,-99.99,,,0.00,759,weatherlink.com 1.10,2013-04-26 20:05:00,
2013-04-26 16:20:00,60.2,41.0,30.35,South,172,7.0,-999.0,50,-99.99,,,0.00,675,weatherlink.com 1.10,2013-04-26 20:20:00,
2013-04-26 16:35:00,60.7,40.0,30.34,South,177,3.0,-999.0,46,-99.99,,,0.00,663,weatherlink.com 1.10,2013-04-26 20:35:00,
2013-04-26 16:50:00,61.0,43.0,30.33,SSE,162,9.0,-999.0,51,-99.99,,,0.00,657,weatherlink.com 1.10,2013-04-26 20:50:00,
2013-04-26 17:05:00,61.0,40.0,30.33,South,191,8.0,-999.0,47,-99.99,,,0.00,631,weatherlink.com 1.10,2013-04-26 21:05:00,
2013-04-26 17:20:00,60.8,41.0,30.33,SSE,162,8.0,-999.0,49,-99.99,,,0.00,575,weatherlink.com 1.10,2013-04-26 21:20:00,
2013-04-26 17:35:00,60.7,42.0,30.33,SSW,193,9.0,-999.0,51,-99.99,,,0.00,533,weatherlink.com 1.10,2013-04-26 21:35:00,
2013-04-26 17:50:00,60.7,40.0,30.32,SSE,158,9.0,-999.0,46,-99.99,,,0.00,483,weatherlink.com 1.10,2013-04-26 21:50:00,
2013-04-26 18:05:00,60.5,39.0,30.33,SSE,158,15.0,-999.0,46,-99.99,,,0.00,163,weatherlink.com 1.10,2013-04-26 22:05:00,
2013-04-26 18:20:00,60.8,42.0,30.33,SSE,168,11.0,-999.0,51,-99.99,,,0.00,415,weatherlink.com 1.10,2013-04-26 22:20:00,
2013-04-26 18:35:00,60.6,40.0,30.33,SSE,159,12.0,-999.0,46,-99.99,,,0.00,338,weatherlink.com 1.10,2013-04-26 22:35:00,
2013-04-26 18:50:00,60.4,41.0,30.32,SSE,154,9.0,-999.0,49,-99.99,,,0.00,267,weatherlink.com 1.10,2013-04-26 22:50:00,
2013-04-26 19:05:00,60.0,41.0,30.32,South,169,9.0,-999.0,49,-99.99,,,0.00,232,weatherlink.com 1.10,2013-04-26 23:05:00,
2013-04-26 19:20:00,59.8,40.0,30.32,SSE,168,10.0,-999.0,49,-99.99,,,0.00,163,weatherlink.com 1.10,2013-04-26 23:20:00,
2013-04-26 19:35:00,59.1,40.0,30.32,South,174,11.0,-999.0,50,-99.99,,,0.00,95,weatherlink.com 1.10,2013-04-26 23:35:00,
2013-04-26 19:50:00,58.6,41.0,30.32,SSE,162,6.0,-999.0,53,-99.99,,,0.00,60,weatherlink.com 1.10,2013-04-26 23:50:00,
2013-04-26 20:05:00,57.8,42.0,30.32,South,179,6.0,-999.0,57,-99.99,,,0.00,28,weatherlink.com 1.10,2013-04-27 00:05:00,
2013-04-26 20:20:00,57.5,41.0,30.32,SSE,159,4.0,-999.0,55,-99.99,,,0.00,16,weatherlink.com 1.10,2013-04-27 00:20:00,
2013-04-26 20:35:00,56.6,41.0,30.32,SSE,160,4.0,-999.0,57,-99.99,,,0.00,0,weatherlink.com 1.10,2013-04-27 00:35:00,
2013-04-26 20:50:00,56.3,41.0,30.32,SSE,161,6.0,-999.0,58,-99.99,,,0.00,0,weatherlink.com 1.10,2013-04-27 00:50:00,
2013-04-26 21:05:00,55.5,41.0,30.32,SSE,162,5.0,-999.0,59,-99.99,,,0.00,0,weatherlink.com 1.10,2013-04-27 01:05:00,
2013-04-26 21:20:00,54.3,41.0,30.32,SSE,156,4.0,-999.0,62,-99.99,,,0.00,0,weatherlink.com 1.10,2013-04-27 01:20:00,
2013-04-26 21:35:00,54.0,42.0,30.32,SSE,158,6.0,-999.0,64,-99.99,,,0.00,0,weatherlink.com 1.10,2013-04-27 01:35:00,
2013-04-26 21:50:00,53.7,42.0,30.32,SSE,154,5.0,-999.0,64,-99.99,,,0.00,0,weatherlink.com 1.10,2013-04-27 01:50:00,
2013-04-26 22:05:00,53.2,41.0,30.32,SSE,157,5.0,-999.0,64,-99.99,,,0.00,0,weatherlink.com 1.10,2013-04-27 02:05:00,
2013-04-26 22:20:00,52.8,41.0,30.32,SSE,155,4.0,-999.0,64,-99.99,,,0.00,0,weatherlink.com 1.10,2013-04-27 02:20:00,
2013-04-26 22:35:00,53.0,41.0,30.32,SE,141,4.0,-999.0,64,-99.99,,,0.00,0,weatherlink.com 1.10,2013-04-27 02:35:00,
2013-04-26 22:50:00,52.4,41.0,30.32,SE,139,3.0,-999.0,65,-99.99,,,0.00,0,weatherlink.com 1.10,2013-04-27 02:50:00,
2013-04-26 23:05:00,51.9,41.0,30.32,SE,139,3.0,-999.0,66,-99.99,,,0.00,0,weatherlink.com 1.10,2013-04-27 03:05:00,
2013-04-26 23:20:00,51.7,41.0,30.32,SE,143,4.0,-999.0,66,-99.99,,,0.00,0,weatherlink.com 1.10,2013-04-27 03:20:00,
2013-04-26 23:35:00,51.4,40.0,30.32,SE,142,4.0,-999.0,65,-99.99,,,0.00,0,weatherlink.com 1.10,2013-04-27 03:35:00,
2013-04-26 23:50:00,50.9,40.0,30.32,SE,143,3.0,-999.0,66,-99.99,,,0.00,0,weatherlink.com 1.10,2013-04-27 03:50:00,